Wind_Speed
35 36 37 37 38 39 39 40 41 41 42 42 43 43 43 43 43 44 44 43 43 44 45 45 45 43 43 43 41 39 37 36 34 32 32 31 29 28
35 36 36 37 38 39 39 40 41 42 42 43 43 44 44 44 44 44 44 44 45 45 46 45 45 44 43 43 42 39 37 36 34 33 32 31 30 29
35 36 36 37 38 38 39 40 40 41 42 43 44 43 44 45 45 45 45 45 46 46 46 47 46 45 44 43 43 42 39 37 35 33 32 30 29 28
37 37 37 37 38 39 39 40 41 41 42 43 45 45 44 45 45 45 46 46 45 46 47 47 46 46 45 44 43 42 40 38 36 35 32 31 30 29
37 37 37 37 37 38 40 40 41 42 42 43 45 46 45 45 46 46 45 46 46 46 47 47 47 46 46 45 44 42 41 39 37 35 33 32 30 29
36 36 36 37 37 38 39 40 41 42 43 44 45 47 47 46 46 45 46 47 46 46 47 48 48 47 47 46 45 44 42 40 38 36 34 32 31 30
37 37 37 37 38 39 39 40 41 42 43 44 45 46 48 48 47 46 46 46 46 46 47 48 49 49 48 47 46 45 43 42 39 37 35 34 32 30
36 36 37 37 38 39 40 41 42 43 44 44 45 47 48 49 48 47 47 46 46 47 47 47 49 50 49 48 47 45 44 43 41 39 37 35 33 31
35 35 36 37 37 38 39 40 42 43 44 45 46 47 48 50 50 49 48 47 46 47 48 47 48 49 50 49 48 47 45 44 42 40 38 35 34 32
34 33 34 35 36 37 38 39 40 42 44 45 46 47 49 50 51 51 50 48 46 45 47 47 48 49 51 51 50 48 47 46 44 42 39 37 35 33
33 33 32 33 34 35 37 38 39 41 44 46 47 48 49 51 52 52 52 50 48 46 46 46 48 49 51 52 51 49 48 48 46 43 41 38 36 34
32 32 32 32 33 34 35 37 39 41 43 45 47 48 49 51 53 53 53 52 50 49 47 47 47 48 49 52 52 50 50 50 48 46 43 40 38 35
31 31 31 31 32 33 35 36 37 39 42 44 46 47 49 51 53 54 54 53 52 51 50 49 46 47 47 49 50 51 51 50 49 47 44 41 39 36
29 29 29 29 30 31 32 33 35 36 39 42 45 47 48 50 52 54 55 54 54 53 51 50 48 47 46 48 49 51 52 52 51 48 45 43 40 38
28 27 27 27 27 27 28 29 31 34 36 39 42 44 47 49 52 53 54 55 55 54 52 50 49 48 46 47 49 51 52 52 51 49 46 44 42 39
26 26 25 24 24 23 23 24 26 30 33 37 40 43 46 49 51 53 53 55 56 55 54 52 50 49 47 47 49 50 52 53 52 50 48 46 43 41
25 24 23 21 20 21 21 21 23 26 29 33 37 41 44 47 50 52 53 54 55 55 54 53 52 50 49 48 49 51 51 53 53 53 51 48 45 42
23 22 20 19 19 19 19 20 21 23 26 29 33 38 42 46 49 51 52 53 54 55 55 54 53 52 50 49 50 52 51 52 53 53 52 49 46 43
22 21 19 18 17 17 18 18 19 20 22 25 29 34 38 43 47 50 52 52 52 54 54 54 54 53 52 49 49 51 52 52 52 52 52 50 47 44
21 20 19 17 16 16 16 16 16 17 19 22 25 29 35 39 44 48 50 51 52 52 53 53 54 53 52 50 49 49 51 52 52 52 52 51 48 45
20 19 18 16 15 14 13 13 13 14 17 20 23 26 31 37 41 45 48 50 51 52 52 51 52 54 53 52 52 50 52 54 53 52 52 52 49 46
20 18 17 15 13 12 11 10 10 11 13 17 20 24 27 32 38 42 45 48 49 50 51 51 52 54 53 51 51 51 52 52 54 53 53 53 51 47
19 17 15 13 11 10 9 8 8 9 11 14 18 22 25 29 34 38 43 46 48 48 49 51 51 52 53 52 50 51 51 51 52 53 52 51 50 49
Wind_Direction
280 276 272 267 263 259 255 251 249 246 245 245 243 241 238 235 233 232 231 231 230 229 228 227 226 226 225 225 226 227 227 228 230 230 232 233 233 234
281 277 273 268 264 260 256 252 249 246 244 243 243 241 239 236 234 232 230 230 230 229 228 226 225 225 225 226 226 226 227 227 227 229 230 231 232 234
281 277 273 268 265 260 256 252 249 245 243 241 241 241 239 236 234 232 230 229 229 228 227 226 225 224 225 226 226 226 226 225 226 228 228 229 230 232
281 277 273 269 264 260 256 253 249 246 243 240 240 240 239 237 234 232 231 228 227 226 225 225 225 223 223 225 225 224 225 225 226 226 227 228 229 230
280 276 273 269 265 261 257 253 250 247 243 240 239 239 239 237 235 232 230 228 226 225 224 224 224 223 223 222 223 223 223 224 224 224 226 226 227 228
281 277 273 269 265 262 258 255 252 249 245 242 239 238 237 236 235 232 230 228 226 224 223 223 223 223 221 220 222 222 222 223 222 222 223 224 226 227
282 278 274 269 266 263 260 256 253 249 246 242 239 237 236 235 234 232 230 229 227 225 224 223 223 222 220 220 220 221 221 221 219 220 221 222 223 224
284 280 275 270 267 264 260 257 253 249 245 242 239 236 235 234 233 230 229 228 227 225 223 222 222 221 220 220 219 218 218 217 216 218 218 219 221 221
287 282 277 272 268 265 261 256 252 248 244 241 239 236 234 233 232 230 228 226 226 225 224 223 222 219 218 217 216 217 216 215 215 216 216 218 218 219
290 286 280 275 271 266 261 257 252 248 244 241 238 236 233 232 231 229 227 226 225 223 223 224 221 219 218 216 214 215 214 214 214 215 215 215 217 217
292 288 283 277 272 267 262 258 254 249 245 241 237 235 233 230 229 227 227 225 223 221 221 221 220 219 218 216 213 213 212 211 212 213 214 214 215 216
294 289 284 279 274 268 263 259 255 250 244 240 237 234 232 230 228 226 225 224 223 222 221 220 219 218 218 216 214 213 212 210 210 212 212 213 214 215
297 291 286 281 275 270 266 260 255 249 244 239 235 233 231 229 227 226 224 223 223 222 222 221 220 219 218 216 214 213 211 210 211 211 211 212 213 214
300 295 290 285 279 274 268 261 255 248 243 238 234 232 230 228 226 225 224 223 222 221 221 221 221 219 218 217 215 212 211 211 210 209 209 211 212 213
304 300 295 289 284 278 271 263 255 248 242 237 233 230 228 226 225 224 223 222 221 220 220 220 220 218 217 217 215 212 211 210 209 208 209 210 211 212
308 305 299 294 286 279 272 264 256 248 243 238 234 230 227 225 223 222 221 220 221 221 220 219 218 217 216 216 214 211 211 210 209 208 209 210 210 212
311 308 304 297 290 284 275 266 258 251 245 239 234 230 226 223 221 221 220 219 219 219 218 218 216 216 215 214 212 211 210 208 208 209 208 209 210 212
313 312 308 300 293 287 278 271 263 255 246 239 233 228 225 222 219 218 218 218 218 217 216 217 216 215 214 215 214 212 211 209 209 209 208 209 210 212
315 313 311 305 298 292 283 274 266 256 246 237 230 226 223 220 218 217 216 216 217 217 216 216 216 215 213 213 214 212 210 210 210 211 210 210 211 212
318 314 312 308 303 296 287 277 266 253 241 233 225 221 218 216 215 215 214 213 214 214 214 215 215 213 212 213 213 212 210 209 210 211 211 210 212 214
320 316 313 307 303 298 291 279 266 250 238 230 221 216 215 214 213 213 212 211 211 212 211 212 213 213 213 212 211 212 211 210 209 211 212 211 212 214
321 317 314 308 303 298 288 279 263 247 234 225 217 213 212 211 211 211 210 209 209 210 210 211 213 212 213 212 211 212 211 211 211 211 213 213 213 214
322 317 315 312 305 297 284 272 255 241 229 219 211 208 207 205 206 207 207 207 207 208 210 210 210 211 212 212 211 211 212 213 213 212 212 213 214 215
Height
5748 5747 5746 5746 5746 5747 5748 5750 5753 5755 5757 5759 5762 5766 5769 5774 5778 5782 5787 5793 5798 5804 5810 5815 5821 5827 5833 5838 5844 5849 5854 5859 5864 5868 5872 5875 5879 5882
5737 5736 5735 5734 5734 5735 5736 5738 5741 5743 5746 5748 5751 5755 5759 5763 5768 5773 5778 5783 5788 5794 5800 5807 5813 5819 5825 5831 5836 5842 5847 5852 5857 5861 5866 5870 5873 5877
5726 5724 5723 5722 5722 5723 5724 5726 5729 5731 5735 5738 5740 5744 5748 5752 5758 5762 5767 5773 5779 5785 5791 5798 5804 5810 5817 5823 5828 5834 5840 5845 5850 5855 5859 5864 5868 5871
5714 5713 5711 5710 5710 5711 5712 5714 5716 5719 5723 5726 5729 5733 5737 5742 5746 5752 5757 5763 5769 5775 5781 5788 5795 5801 5808 5814 5820 5826 5832 5838 5843 5848 5853 5858 5862 5865
5702 5700 5699 5698 5698 5698 5700 5701 5704 5707 5710 5714 5718 5721 5726 5731 5736 5741 5747 5753 5759 5765 5771 5778 5785 5792 5799 5806 5812 5818 5824 5830 5836 5841 5847 5851 5856 5860
5690 5688 5686 5686 5685 5686 5687 5689 5691 5694 5697 5702 5706 5710 5715 5719 5725 5731 5736 5742 5749 5755 5762 5768 5776 5783 5790 5797 5804 5810 5816 5823 5829 5834 5840 5845 5849 5854
5677 5675 5674 5673 5673 5673 5674 5676 5678 5681 5684 5688 5693 5698 5703 5708 5714 5720 5726 5732 5738 5745 5752 5759 5766 5773 5780 5787 5794 5801 5808 5815 5821 5827 5833 5838 5843 5848
5665 5662 5660 5660 5659 5660 5661 5662 5665 5668 5671 5675 5680 5685 5691 5696 5702 5708 5715 5722 5729 5736 5741 5748 5756 5763 5771 5778 5785 5792 5800 5807 5814 5820 5826 5832 5837 5842
5652 5649 5647 5646 5646 5646 5647 5648 5651 5654 5658 5662 5667 5672 5678 5684 5690 5697 5703 5711 5718 5725 5731 5738 5745 5753 5761 5768 5776 5784 5791 5799 5806 5813 5819 5825 5830 5836
5640 5637 5635 5633 5632 5632 5633 5635 5637 5640 5644 5648 5654 5659 5665 5670 5678 5685 5692 5700 5707 5714 5721 5728 5735 5743 5751 5759 5766 5774 5782 5790 5798 5805 5812 5818 5824 5829
5629 5625 5623 5620 5619 5619 5620 5621 5623 5626 5629 5634 5640 5645 5652 5658 5665 5673 5681 5689 5697 5703 5710 5718 5725 5732 5740 5748 5756 5765 5773 5781 5789 5797 5804 5811 5817 5823
5618 5614 5611 5609 5607 5606 5606 5608 5610 5612 5615 5620 5626 5632 5638 5645 5653 5661 5669 5677 5685 5693 5700 5708 5715 5723 5731 5739 5747 5755 5764 5772 5781 5789 5797 5804 5810 5816
5607 5603 5600 5597 5595 5594 5594 5594 5596 5598 5601 5606 5612 5618 5625 5633 5640 5649 5657 5666 5674 5683 5691 5698 5706 5714 5722 5730 5738 5746 5755 5764 5773 5781 5789 5796 5803 5810
5597 5593 5589 5586 5584 5582 5581 5582 5582 5585 5588 5593 5599 5605 5612 5620 5628 5637 5645 5654 5663 5672 5680 5688 5696 5705 5713 5721 5729 5738 5746 5755 5764 5773 5781 5789 5796 5803
5588 5583 5580 5576 5574 5572 5571 5570 5571 5573 5577 5581 5587 5593 5600 5607 5616 5624 5633 5642 5651 5660 5669 5679 5687 5695 5703 5712 5720 5729 5738 5747 5756 5765 5773 5781 5789 5796
5580 5575 5571 5568 5565 5563 5561 5561 5561 5563 5566 5570 5575 5581 5588 5595 5604 5613 5622 5631 5640 5650 5659 5668 5677 5686 5695 5703 5711 5719 5729 5738 5747 5756 5765 5773 5781 5789
5572 5568 5564 5560 5557 5555 5554 5553 5554 5555 5557 5560 5564 5570 5576 5584 5593 5601 5611 5620 5630 5640 5649 5658 5667 5676 5685 5694 5702 5711 5720 5729 5738 5748 5757 5765 5774 5781
5566 5561 5557 5554 5551 5549 5548 5547 5546 5547 5548 5551 5554 5559 5566 5574 5582 5591 5600 5610 5620 5629 5639 5649 5658 5667 5676 5685 5694 5703 5712 5721 5730 5739 5748 5757 5766 5774
5560 5556 5552 5549 5546 5543 5541 5540 5539 5539 5540 5542 5545 5550 5557 5564 5572 5581 5591 5601 5610 5620 5630 5639 5649 5659 5668 5677 5686 5695 5705 5714 5722 5732 5741 5750 5759 5767
5555 5551 5547 5544 5541 5538 5536 5534 5533 5533 5534 5535 5538 5543 5549 5556 5563 5572 5582 5592 5602 5611 5621 5631 5641 5651 5661 5670 5679 5687 5697 5706 5715 5724 5733 5741 5750 5759
5551 5546 5543 5539 5537 5534 5531 5530 5528 5528 5529 5530 5533 5537 5542 5549 5556 5564 5573 5583 5593 5602 5613 5623 5632 5642 5651 5661 5670 5678 5688 5697 5706 5716 5725 5733 5742 5750
5546 5542 5539 5535 5533 5530 5528 5526 5525 5524 5525 5526 5529 5532 5537 5543 5550 5558 5566 5576 5585 5595 5605 5614 5623 5633 5643 5653 5662 5671 5680 5689 5698 5707 5716 5725 5734 5743
5543 5538 5535 5532 5529 5527 5525 5524 5523 5523 5523 5524 5526 5529 5534 5539 5545 5553 5560 5569 5578 5588 5597 5606 5615 5625 5635 5645 5654 5663 5672 5681 5689 5699 5708 5717 5726 5734